DELTA 1 DEB, 40771

Orbit data source: Space-Track

DELTA 1 DEB, 40771 is space debris in SSO originally from a launch on Thu, 29 Jul 1976 UTC launched from the Air Force Western Test Range (AFWTR). Debris objects in space refer to the collection of defunct objects orbiting the Earth. Examples of debris include non-operational satellites, rocket bodies, and fragments generated from explosions, collisions, or faulty payload assembly.

Loading next visibility...
Identifier
40771, 1976-077GQ
Orbit
SSO
Country
Flag of USUS
Related business
Manufacturer
Unknown
Mission
Spacecraft
Bus & Motor
Unknown
Mass
Unknown
Launch date (UTC)
1976-07-29 (50 years ago)
Launch vehicle
Unknown
Launch site
Air Force Western Test Range (AFWTR)
Object type
Payload
Rocket body
Debris
Shape & HBR
Unknown shape, 0.1 m
Radar Cross Section
Medium (>0.1 m² and <1 m²)

Expand to show TLE details & history
Last TLE update: 2 days ago

TLE from 2 days ago
0 DELTA 1 DEB
1 40771U 76077GQ  26171.45510669  .00000090  00000-0  10128-2 0  9992
2 40771 102.1981 152.3942 0012347 206.9775 305.0829 12.40107651539148
Epoch: 2026-06-20T10:55Z
TLE epoch observation values (Epoch: 2026-06-20T10:55:21.218Z)
Latitude
27.40726°
Longitude
-93.70959°
Altitude
1,503.592 km
Speed
7.118 km/s
True Right ascension
22h 35m 11s
True Declination
27° 16' 49"
Sunlit
Object was in daylight at epoch
Visualization orbit readout
Latitude
Unknown
Longitude
Unknown
Altitude
Unknown
Speed
Unknown
Apparent Right ascension
Unknown
Apparent Declination
Unknown
Sunlit
N/A
Visualization observer readout
Local Sidereal Time
21:38:44
Azimuth
Unknown
Elevation
Unknown
Doppler factor
Unknown
Orbital elements
Apogee altitude
1,513.465 km
Perigee altitude
1,494.002 km
Semi-major axis
7,881.87 km
Eccentricity
0.00123
Inclination
102.1981°
RAAN
152.3942°
Arg. of periapsis
206.9775°
True anomaly
304.96702°
Mean anomaly
305.0829°
Eccentric anomaly
305.02497°
Mean motion
3.1017 °/min
Orbital period
116.07 mins
BSTAR
0.0010128
Loading maneuver chart data...
Computing Atmospheric mass density...
Loading historical data...
Loading historical data...
Loading historical data...
Loading historical data...
Loading historical data...
Loading historical data...
Loading historical data...

Documentation

Showing up to 5 results
|